Hauptseite
METAR-TAF:

METAR-TAF

Flughäfen :

Flughafen Wakkanai

Wakkanai, Japan

Breite: 45-24N, Länge: 141-48E, Höhe: 8 m

Beobachtung

Neuester Wetterbericht von vor 6 Stunden und 20 Minuten, um 09:00 UTC
Wind 11 kt aus Ost/Südost
Temperatur 3°C
Luftfeuchtigkeit 87%
Luftdruck 1021 hPa
Sichtweite 10 km oder mehr
Leicht bewölkt in der Höhe von 600 ft

METAR: RJCW 230900Z 11011KT 9999 FEW006 03/01 Q1021

Zeit: 00:20 (15:20 UTC)


TAF: fehlend

Wetterbeobachtungen und Prognosen von mehr als 4000 Flughäfen (METAR und TAF Bericht).

Die verfügbaren Stationen werden durch gelbe und rote Markierungen auf der Karte dargestellt.

Führen Sie die Maus auf sie, um den Namen der Station zu sehen.

Darauf klicken, um die Beobachtung von Wetterbeobachtungen und Prognosen zu sehen.

Um die Karte zu ändern : klicken Sie auf den grünen Tasten mit einem schwarzen Kreuz Zum Vergrößern, auf den grünen Button mit einem Gedankenstrich zu verkleinern, oder auf die grünen Pfeile für benachbarte Karten.


METAR-TAF: